Weather in Vershina Tei

Russia / Republic of Khakassia     53°16′04″N   89°34′01″E
temp.,
°C
wind,
m/s
gust,
m/s
humid.,
%
clouds,
%
prec.,
mm/h
press.,
hPa
HPBL,
m
19 january, tue
tue1901:00−10w7189291 2.3 10121083
04:00−11w7199171 0.1 10141058
07:00−14w7189460 0.1 1016909
10:00−16w6169343 0.0 1018846
13:00−14w6148331 0.0 1019913
16:00−15w4138854 0.0 1019887
19:00−18w3139658 0.0 1021430
22:00−18w414901 0.0 1022514
20 january, wed
wed2001:00−19w415894 0.0 1023541
04:00−22w313953 0.0 1024409
07:00−24w22974 0.0 102720
10:00−23wsw12954 0.0 103020
13:00−15wnw12793 0.0 1028186
16:00−16wnw12910 0.0 1027137
19:00−20sw11921 0.0 103020
22:00−19sw117796 0.0 102920
21 january, thu
thu2101:00−17sse116498 0.0 102820
04:00−17se2270100 0.0 102620
07:00−14sse1291100 0.1 102436
10:00−11s2395100 1.2 1023100
13:00−5wsw31192100 1.6 1020891
16:00−5w61589100 0.4 10181320
19:00−8wsw21396100 0.5 1018708
22:00−10ssw1296100 0.2 101722
22 january, fri
fri2201:00−10s1296100 0.3 101521
04:00−8se1297100 0.3 101322
07:00−8se2296100 0.6 100946
10:00−6s2496100 0.8 1007168
13:00−3wsw51295100 1.8 1005997
16:00−6w51194100 0.6 1006873
19:00−8wnw2697100 1.0 1009242
22:00−10w2297100 0.3 101136
23 january, sat
sat2301:00−11wsw2397100 0.6 1012103
04:00−12w21096100 0.4 1015677
07:00−15w51395100 0.9 1018848
10:00−18w31597100 0.1 1021855
13:00−16w51592100 0.3 1020848
16:00−17w2594100 0.4 1019424
19:00−17w41497100 0.8 10211171
22:00−17w81888100 0.3 10251726